Airfield :
LOGIN :

Register | Disclaimer

   EN    FR    IT 

 










Legend :    VFR   Marginal VFR   IFR   Intensive IFR   Very Intensive IFR
Visi :
Ceiling :
>= 8 km
>= 3000ft
5 to 8 km
1000 to 3000 ft
1500m to 5 km
500 to 1000 ft
800 to 1500m
200 to 500 ft
< 800m
< 200 ft
Symbols :   Thunderstorms  Fog  Heavy snow  Heavy precipitations  Wind > 20 kt
SIGMETs :     Misc.  Thunderstorms  Icing  Turbulence  Mountain Waves  Volcanic Ashes







- Airport Elevation : 313 ft
- Download approach charts


LFQA - Reims-Prunay

CURRENT METAR :
  • 200630Z AUTO 00000KT 3500 BR OVC008/// ///TCU 16/16 Q1012

EXPIRED METARs :
  • 200600Z AUTO 00000KT 1900 -RA BR BKN012/// BKN018/// OVC033/// ///TCU 16/15 Q1012
  • 200530Z AUTO VRB02KT 2100 RA BR FEW004/// SCT010/// BKN017/// ///CB 16/15 Q1012
  • 200500Z AUTO 13004KT 100V160 9000 OVC020/// ///CB 16/15 Q1012
  • 200430Z AUTO VRB02KT 9999 OVC024/// ///CB 15/15 Q1012
  • 200400Z AUTO VRB01KT 9999 FEW025 BKN033 BKN045 15/14 Q1012

TAF N/A
No reported NOTAMs for that airfield.



MET'MAP, your aeronautical weather chart ! - Copyright ORBIFLY December 2007 - Disclaimer

ORBIFLY MET'MAP TEAM :

Programming & Development : Alexandra Zaïnal
Concept & Development : Baudouin d'Aumeries
Co-Development & Prog : Marc-Olivier Méhu
Technical & hardware support : Manuel Goepfert

Contact : metmap@orbifly.com




SOURCES & CREDITS :

   NOAA